GW3985 Weather Reports


time (UTC)temp
F
wind
direction
speed
knots
gust
knots
rain 1hr
in
rain 24hr
in
rain mn
in
humidity
%
barometer
mb
20260831213015 86 95 0.9 2.6 0.00 0.02 0.00 35 1025.6
20260831212016 85 89 0.9 2.6 0.00 0.02 0.00 35 1025.7
20260831211016 83 111 0.9 1.7 0.00 0.02 0.00 36 1025.8
20260831210036 84 99 0.9 2.6 0.00 0.02 0.00 34 1026.0
20260831205017 85 114 0.0 0.9 0.00 0.02 0.00 36 1026.0
20260831204015 84 120 0.9 2.6 0.00 0.02 0.00 36 1026.2
20260831203015 83 92 0.0 1.7 0.00 0.02 0.00 38 1026.3
20260831202016 83 283 0.0 1.7 0.00 0.02 0.00 38 1026.5
20260831201016 82 0.0 0.0 0.00 0.02 0.00 38 1026.7
20260831200016 82 0.0 0.0 0.00 0.02 0.00 40 1026.8
20260831195016 81 0.0 0.0 0.00 0.02 0.00 39 1026.8
20260831194017 81 219 0.0 0.9 0.00 0.02 0.00 39 1026.9
20260831193015 82 242 0.0 1.7 0.00 0.02 0.00 38 1027.0
20260831192015 82 27 0.0 0.9 0.00 0.02 0.00 39 1027.1
20260831191015 82 289 0.0 0.9 0.00 0.02 0.00 39 1027.2
20260831190036 82 282 0.0 0.9 0.00 0.02 0.00 38 1027.3
20260831185016 82 256 0.0 1.7 0.00 0.02 0.00 37 1027.4
20260831184017 81 250 0.0 0.9 0.00 0.02 0.00 38 1027.5
20260831183037 80 244 0.0 0.9 0.00 0.02 0.00 39 1027.6
20260831182015 79 0.0 0.0 0.00 0.02 0.00 40 1027.7
20260831181015 80 267 0.0 0.9 0.00 0.02 0.00 40 1027.7
20260831180015 79 266 0.0 0.9 0.00 0.02 0.00 41 1027.8
20260831175016 79 270 0.0 0.9 0.00 0.02 0.00 41 1027.9
20260831174016 78 251 0.0 0.9 0.00 0.02 0.00 42 1027.8
20260831173017 78 0.0 0.0 0.00 0.02 0.00 42 1027.9
20260831172017 78 250 0.0 0.9 0.00 0.02 0.00 41 1028.0
20260831171035 77 0.0 0.0 0.00 0.02 0.00 41 1028.0
20260831170015 77 267 0.0 0.9 0.00 0.02 0.00 43 1028.0
20260831165016 77 268 0.0 0.9 0.00 0.02 0.00 42 1028.0
20260831164036 76 12 0.0 0.9 0.00 0.02 0.00 43 1027.9
20260831163056 75 12 0.0 0.9 0.00 0.02 0.00 45 1027.9
20260831162038 74 12 0.0 0.9 0.00 0.02 0.00 47 1027.8
20260831161035 74 12 0.0 1.7 0.00 0.02 0.00 50 1027.7
20260831160015 73 41 0.0 1.7 0.00 0.02 0.00 51 1027.8
20260831155015 73 0.0 0.0 0.00 0.02 0.00 50 1027.7
20260831154016 72 141 0.0 0.9 0.00 0.02 0.00 52 1027.7
20260831153016 71 141 0.0 0.9 0.00 0.02 0.00 52 1027.6
20260831152016 71 0.0 0.0 0.00 0.02 0.00 52 1027.6
20260831151017 70 141 0.0 0.9 0.00 0.02 0.00 53 1027.6
20260831150015 70 141 0.0 0.9 0.00 0.02 0.00 54 1027.5
20260831145015 69 143 0.0 1.7 0.00 0.02 0.00 55 1027.4
20260831144015 68 143 0.0 0.9 0.00 0.02 0.00 56 1027.3
20260831143016 68 142 0.0 0.9 0.00 0.02 0.00 57 1027.3
20260831142016 67 142 0.9 1.7 0.00 0.02 0.00 57 1027.3
20260831141017 66 147 0.9 1.7 0.00 0.02 0.00 58 1027.3
20260831140037 66 145 0.0 1.7 0.00 0.02 0.00 59 1027.2
20260831135015 65 133 0.0 1.7 0.00 0.02 0.00 59 1027.0
20260831134015 64 143 0.0 1.7 0.00 0.02 0.00 61 1026.7
20260831133018 63 148 0.0 1.7 0.00 0.02 0.00 61 1026.7
20260831132016 63 136 0.0 1.7 0.00 0.02 0.00 62 1026.7
20260831131036 62 136 0.0 1.7 0.00 0.02 0.00 62 1026.6
20260831125517 62 136 0.0 0.9 0.00 0.02 0.00 62 1026.3
20260831124515 62 136 0.0 0.9 0.00 0.02 0.00 63 1026.2
20260831123535 62 141 0.0 0.9 0.00 0.02 0.00 63 1026.1
20260831122535 62 140 0.0 0.9 0.00 0.02 0.00 63 1026.0
20260831121516 62 142 0.0 1.7 0.00 0.02 0.00 64 1026.0
20260831120516 62 140 0.0 0.9 0.00 0.02 0.00 64 1026.0
20260831115537 62 140 0.0 0.9 0.00 0.02 0.00 64 1025.8
20260831114517 62 146 0.0 1.7 0.00 0.02 0.00 64 1025.8
20260831113535 62 0.0 0.0 0.00 0.02 0.00 64 1025.8
20260831112515 62 137 0.0 0.9 0.00 0.02 0.00 64 1025.7
20260831111515 62 136 0.9 1.7 0.00 0.02 0.00 65 1025.7
20260831110516 62 136 0.0 0.9 0.00 0.02 0.00 65 1025.6
20260831105516 62 136 0.0 0.9 0.00 0.02 0.00 64 1025.5
20260831104517 62 136 0.0 0.9 0.00 0.02 0.00 64 1025.6
20260831103517 62 137 0.0 0.9 0.00 0.02 0.00 64 1025.6
20260831102535 62 137 0.0 1.7 0.00 0.02 0.00 64 1025.5
20260831101515 62 137 0.0 0.9 0.00 0.02 0.00 65 1025.4
20260831100516 62 139 0.0 0.9 0.00 0.02 0.00 65 1025.3
20260831095516 62 139 0.0 0.9 0.00 0.02 0.00 66 1025.3
20260831094536 62 149 0.9 1.7 0.00 0.02 0.00 66 1025.3
20260831093517 62 136 0.0 0.9 0.00 0.02 0.00 66 1025.4
20260831092515 62 148 0.9 2.6 0.00 0.02 0.00 66 1025.2
20260831091515 63 143 0.0 1.7 0.00 0.02 0.00 66 1025.2
20260831090515 63 142 0.0 1.7 0.00 0.02 0.00 65 1025.2
20260831085556 63 142 0.9 3.5 0.00 0.02 0.00 65 1025.1
20260831084516 63 140 0.9 2.6 0.00 0.02 0.00 66 1025.3
20260831083516 62 145 0.9 3.5 0.00 0.02 0.00 66 1025.4
20260831082537 62 140 0.0 1.7 0.00 0.02 0.00 67 1025.5
20260831081515 63 140 0.0 0.9 0.00 0.02 0.00 67 1025.5
20260831080535 63 140 0.0 1.7 0.00 0.02 0.00 67 1025.6
20260831075535 63 140 0.0 1.7 0.00 0.02 0.00 67 1025.8
20260831074516 63 150 0.0 1.7 0.00 0.02 0.00 68 1025.8
20260831073516 63 146 0.0 1.7 0.00 0.02 0.00 67 1025.8
20260831072517 63 141 0.9 2.6 0.00 0.02 0.00 67 1025.7
20260831071517 63 145 0.0 1.7 0.00 0.02 0.00 67 1025.8
20260831070535 63 141 0.9 3.5 0.00 0.02 0.00 67 1026.0
20260831065515 63 141 0.9 2.6 0.00 0.02 0.00 68 1026.2
20260831064515 63 141 0.9 1.7 0.00 0.02 0.00 68 1026.2
20260831063516 63 144 0.9 3.5 0.00 0.02 0.00 68 1026.4
20260831062516 63 139 0.9 3.5 0.00 0.02 0.00 69 1026.4
20260831061537 63 142 1.7 4.3 0.00 0.02 0.00 69 1026.6
20260831060517 64 145 0.9 3.5 0.00 0.02 0.00 69 1026.8
20260831055515 64 144 0.9 2.6 0.00 0.02 0.02 69 1026.8
20260831054515 64 127 0.0 0.9 0.00 0.02 0.02 69 1027.0
20260831053516 64 127 0.0 0.9 0.00 0.02 0.02 69 1026.9
20260831052516 64 0.0 0.0 0.00 0.02 0.02 69 1027.0
20260831051517 64 127 0.0 0.9 0.00 0.02 0.02 69 1026.9
20260831050517 65 125 0.0 0.9 0.00 0.02 0.02 68 1026.8
20260831045537 65 148 0.9 2.6 0.00 0.02 0.02 67 1027.2
20260831044515 66 141 1.7 5.2 0.00 0.02 0.02 68 1026.8
20260831043515 67 136 0.9 3.5 0.00 0.02 0.02 66 1027.2
20260831042516 67 145 0.9 3.5 0.00 0.02 0.02 65 1026.9
20260831041536 67 142 0.9 3.5 0.00 0.02 0.02 66 1026.6
20260831040517 66 142 0.9 2.6 0.00 0.02 0.02 67 1026.2
20260831035517 66 142 0.9 1.7 0.00 0.02 0.02 67 1025.8
20260831034515 65 142 1.7 4.3 0.00 0.02 0.02 70 1025.9
20260831033535 65 132 0.9 2.6 0.00 0.02 0.02 74 1026.0
20260831032516 64 0.0 0.0 0.00 0.02 0.02 77 1026.1
20260831031516 64 145 0.9 1.7 0.00 0.02 0.02 77 1026.5
20260831030516 64 143 0.9 3.5 0.00 0.02 0.02 77 1026.4
20260831025516 64 141 0.0 1.7 0.00 0.02 0.02 78 1026.3
20260831024517 64 141 0.9 4.3 0.00 0.02 0.02 78 1026.1
20260831023535 64 142 0.0 2.6 0.00 0.02 0.02 78 1025.8
20260831022515 64 140 0.9 3.5 0.00 0.02 0.02 78 1025.5
20260831021536 64 136 0.9 2.6 0.00 0.02 0.02 79 1025.3
20260831020536 64 132 0.0 0.9 0.00 0.02 0.02 79 1025.3
20260831015516 64 145 0.9 1.7 0.00 0.02 0.02 77 1025.1
20260831014537 65 142 0.0 1.7 0.00 0.02 0.02 76 1025.1
20260831013517 65 137 0.0 1.7 0.00 0.02 0.02 77 1025.1
20260831012515 66 0.0 0.0 0.00 0.02 0.02 77 1025.1
20260831011515 67 0.0 0.0 0.00 0.02 0.02 75 1025.0
20260831010516 68 0.0 0.0 0.00 0.02 0.02 74 1025.1
20260831005516 68 135 0.0 0.9 0.00 0.02 0.02 70 1025.1
20260831004516 69 135 0.0 0.9 0.00 0.02 0.02 66 1025.3
20260831003637 69 135 0.0 0.9 0.00 0.02 0.02 65 1025.2
20260831002517 69 135 0.0 0.9 0.00 0.02 0.02 65 1025.1
20260831001535 68 136 0.0 2.6 0.00 0.02 0.02 65 1025.3
20260831000515 68 137 0.0 1.7 0.00 0.02 0.02 69 1025.6
20260830235516 67 141 0.9 3.5 0.00 0.02 0.02 69 1025.8
20260830234516 67 137 0.0 2.6 0.00 0.02 0.02 70 1025.9
20260830233517 66 0.0 0.0 0.00 0.02 0.02 72 1025.8
20260830232517 66 110 0.0 0.9 0.00 0.02 0.02 73 1025.8
20260830231514 65 125 0.0 0.9 0.01 0.02 0.02 74 1025.9
20260830230535 65 140 0.9 4.3 0.02 0.05 0.02 75 1026.3
20260830225516 65 132 0.9 2.6 0.02 0.05 0.02 75 1026.5
20260830224516 64 25 0.0 0.9 0.02 0.05 0.02 76 1026.2
20260830223520 64 25 0.0 0.9 0.02 0.05 0.02 76 1026.0
20260830222517 65 0.0 0.0 0.02 0.05 0.02 75 1025.9
20260830221537 66 266 0.0 0.9 0.01 0.04 0.01 71 1025.7
20260830220515 69 75 0.9 3.5 0.00 0.03 0.00 59 1026.1
20260830215515 70 87 0.9 4.3 0.00 0.03 0.00 52 1025.9
20260830214515 72 71 1.7 7.0 0.00 0.03 0.00 50 1025.3